Location: Knowlton
(51.2333°N, 1.2667°E)
Time: 01:30:22
(UTC+00:00)

USA 229 DEB - Visible Passes

Search period start: 26 July 2021 00:00
Search period end: 05 August 2021 00:00
Orbit: 955 x 1257 km, 63.4° (Epoch: 23 July)

Date Brightness Start Highest point End Pass type
(mag) Time Alt. Az. Time Alt. Az. Time Alt. Az.
26 Jul 4.7 01:15:05 10° WNW 01:21:21 31° WSW 01:24:14 24° SSW visible
26 Jul 5.3 20:47:27 10° NW 20:53:42 34° NNE 21:00:21 10° ENE visible
26 Jul 4.2 22:38:48 10° NW 22:45:57 65° NE 22:52:43 14° ESE visible
27 Jul 4.3 00:29:58 10° NW 00:36:49 44° WSW 00:40:06 29° S visible
27 Jul 4.5 21:53:57 10° NW 22:00:53 51° NNE 22:08:17 10° ESE visible
27 Jul 4.0 23:45:00 10° NW 23:52:10 62° SW 23:56:04 30° SSE visible
28 Jul 5.4 01:37:44 10° WNW 01:41:56 16° WSW 01:43:27 15° WSW visible
28 Jul 4.8 21:09:03 10° NW 21:15:44 42° NNE 21:22:51 10° E visible
28 Jul 3.9 23:00:08 10° NW 23:07:24 83° SW 23:12:08 26° SE visible
29 Jul 5.0 00:51:55 10° WNW 00:57:37 25° WSW 00:59:32 22° SW visible
29 Jul 5.1 20:24:05 10° NW 20:30:29 36° NNE 20:37:18 10° E visible
29 Jul 4.0 22:15:18 10° NW 22:22:32 75° NE 22:28:16 19° SE visible
30 Jul 4.6 00:06:37 10° NW 00:13:09 36° WSW 00:15:41 29° SSW visible
30 Jul 4.3 21:30:28 10° NW 21:37:32 59° NE 21:44:28 13° ESE visible
30 Jul 4.2 23:21:34 10° NW 23:28:35 51° WSW 23:31:52 32° S visible
31 Jul 5.7 01:15:32 10° W 01:18:05 12° WSW 01:19:16 11° WSW visible
31 Jul 4.6 20:45:36 10° NW 20:52:27 47° NNE 20:59:43 10° ESE visible
31 Jul 3.9 22:36:39 10° NW 22:43:53 70° SW 22:48:08 29° SSE visible
01 Aug 5.3 00:28:54 10° WNW 00:33:50 19° WSW 00:35:32 18° SW visible
01 Aug 3.9 21:51:48 10° NW 21:59:04 88° NE 22:04:27 22° SE visible
01 Aug 5.0 23:43:21 10° WNW 23:49:27 29° WSW 23:51:52 24° SW visible
02 Aug 4.1 21:06:58 10° NW 21:14:09 68° NE 21:20:49 14° ESE visible
02 Aug 4.6 22:58:11 10° NW 23:04:57 41° WSW 23:08:14 28° SSW visible
03 Aug 4.4 20:22:08 10° NW 20:29:07 53° NNE 20:36:34 10° ESE visible
03 Aug 4.2 22:13:12 10° NW 22:20:19 58° SW 22:24:39 27° SSE visible
04 Aug 5.7 00:06:14 10° WNW 00:10:00 15° WSW 00:12:03 13° WSW visible
04 Aug 3.9 21:28:18 10° NW 21:35:35 79° SW 21:41:06 21° SE visible
04 Aug 5.3 23:20:14 10° WNW 23:25:42 23° WSW 23:28:31 18° SW visible
